Regional Weather Roundup
Issued by NWS Jackson, KY

Home | Current Version | Previous Version | Graphics & Text | Print | Product List | Glossary On
Versions: 1 2 3 4 5 6 7 8 9 10 11 12 13 14 15 16 17 18 19 20 21 22 23 24 25 26 27 28 29 30 31 32 33 34 35 36 37 38 39 40 41 42 43 44 45 46 47 48 49 50
000
ASUS43 KJKL 241810
RWRJKL

EAST KENTUCKY HOURLY WEATHER ROUNDUP
NATIONAL WEATHER SERVICE JACKSON KY
200 PM EDT TUE MAY 24 2016

NOTE: "FAIR" INDICATES FEW OR NO CLOUDS BELOW 12,000 FEET WITH
NO SIGNIFICANT WEATHER AND/OR OBSTRUCTIONS TO VISIBILITY.

* THESE REPORTS ARE NOT UNDER NWS QUALITY CONTROL AND MAY NOT
  REPORT WEATHER SUCH AS PRECIPITATION AND FOG.

KYZ079-080-083-085-087-088-110-112-115-119-120-241900
...EASTERN KENTUCKY...

CITY           SKY/WX    TMP DP  RH WIND       PRES   REMARKS
JACKSON        SUNNY     77  50  38 VRB5      30.15F
6HR MIN TEMP:  56; 6HR MAX TEMP:  78;

LONDON         SUNNY     77  44  30 SW9       30.15F
6HR MIN TEMP:  54; 6HR MAX TEMP:  77;

SOMERSET*      SUNNY     75  45  33 SW5       30.15F
MONTICELLO*    SUNNY     78  51  38 W8        30.17S
6HR MIN TEMP:  55; 6HR MAX TEMP:  79;

WILLIAMSBURG*  CLEAR     77  45  31 SW3       30.15F
MIDDLESBORO*   MOSUNNY   77  53  41 S6        30.15F
6HR MIN TEMP:  51; 6HR MAX TEMP:  78;

HARLAN APT*      N/A     77  43  29 W3        30.16F
HAZARD APT*    CLEAR     77  48  36 SW6       30.15S
BLACK MTN*       N/A     68  50  52 W5          N/A
PIKE CO APT*     N/A     74  52  46 CALM      30.15F
BIG SANDY APT* PTCLDY    76  55  47 CALM      30.14F
6HR MIN TEMP:  57; 6HR MAX TEMP:  77;

MOREHEAD APT*  CLEAR     77  48  36 CALM      30.15F
ASHLAND*       SUNNY     79  55  44 CALM      30.10F
$$

KYZ035-036-041-042-044-050-067-078-099-241900
...CENTRAL KENTUCKY...

CITY           SKY/WX    TMP DP  RH WIND       PRES   REMARKS
MT STERLING*   SUNNY     77  52  41 CALM      30.15S
FLEMING/MASON* SUNNY    N/A N/A N/A W5        30.14F
DANVILLE*      SUNNY     77  46  33 CALM      30.15F
RICHMOND*      SUNNY     77  50  38 W10       30.14S
LEXINGTON      SUNNY     78  47  33 CALM      30.14S
6HR MIN TEMP:  58; 6HR MAX TEMP:  78;

FRANKFORT      SUNNY     80  44  27 VRB6      30.12S
6HR MIN TEMP:  57; 6HR MAX TEMP:  80;

LOUISVILLE     PTSUNNY   82  51  34 SW8       30.10F
6HR MIN TEMP:  59; 6HR MAX TEMP:  82;

LEBANON*         N/A     77  52  41 SW5       30.14S
GLASGOW*       SUNNY     82  53  37 SW7       30.12F
BOWLING GREEN  SUNNY     83  53  35 S6        30.11F
6HR MIN TEMP:  57; 6HR MAX TEMP:  83;

$$

KYZ091>093-OHZ055-061-077-WVZ005-015-034-035-042-241900
...SOUTHERN OHIO/WEST VIRGINIA...

CITY           SKY/WX    TMP DP  RH WIND       PRES   REMARKS
COVINGTON      PTSUNNY   78  48  34 S8        30.11F
COLUMBUS       MOSUNNY   77  49  37 SW8       30.10S
DAYTON         PTSUNNY   78  48  34 VRB7      30.11F
WILMINGTON     SUNNY     77  52  41 SW10      30.11F
HUNTINGTON       N/A     78  51  38 SW6       30.12F
CHARLESTON       N/A     76  50  40 CALM      30.12F
PINEVILLE*       N/A     78  44  30 MISG      30.20F
BECKLEY          N/A     72  47  40 SW7       30.18F
BLUEFIELD        N/A     70  47  43 SW14      30.20S
LOGAN CO APT*    N/A     75  54  46 VRB5      30.15S
$$

VAZ002-007-008-TNZ017-027-036-066-071-241900
...SOUTHWEST VIRGINIA/EAST TENNESSEE...

CITY           SKY/WX    TMP DP  RH WIND       PRES   REMARKS
WISE*            N/A     73  41  31 W6        30.21F
JONESVILLE*      N/A     77  48  36 W3        30.18F
ABINGDON*        N/A     74  50  41 W7        30.19F
BRISTOL        MOSUNNY   76  49  38 NW5       30.17F
SEVIERVILLE*   CLEAR     79  46  31 W9        30.15S
KNOXVILLE      MOSUNNY   79  46  31 S7        30.15F
OAK RIDGE      SUNNY     80  49  33 VRB3      30.16F
CROSSVILLE     MOSUNNY   79  48  33 NW8       30.19S
NASHVILLE      CLOUDY    85  49  28 W5        30.12F
$$

...KEY TO REMARKS...
VSB - VISIBILITY IN MILES
WCI - WIND CHILL INDEX
HX  - HEAT INDEX

$$



USA.gov is the U.S. government's official web portal to all federal, state and local government web resources and services.